Torna al catalogo

DELTA 1 DEB

LostSSO
NORAD 8533·DEBRIS·🇺🇸 United States

Lanciato Jul 23, 1972 da Vandenberg Space Force Base

Loading…

Prossimi Passaggi (prossime 24 ore)

TLE

ObsoletoSource: Space-Track

Epoca: Jan 29, 2021, 07:16 UTC

1  8533U 72058GG  21029.30337373 -.00000320  00000-0 -84100-4 0  9998
2  8533  98.4839 102.4890 0003099 150.3530 209.7835 14.41969479316305

Traccia DELTA 1 DEB in tempo reale con AllMySat

Download on the App Store